Wind_Speed
0 3 3 3 3 3 4 3 3 2 2 6 4 4 6 3 6 8 7 7 6 5 4 5 9 12 18 19 20 20 22 11 13 13 23 19 15 13 11 10 8 7 9 11
4 3 1 4 3 5 4 7 3 3 3 4 4 6 7 5 2 2 7 8 7 7 8 11 12 14 15 24 25 19 16 12 17 22 19 13 14 10 10 8 6 7 9 12
4 1 3 3 4 7 4 5 2 3 4 6 3 3 2 4 5 4 4 6 8 12 13 13 15 14 14 17 16 16 18 21 22 17 14 15 9 10 6 5 5 6 11 14
4 3 3 4 3 2 4 1 4 4 2 2 3 3 2 1 3 4 7 9 12 13 12 14 15 15 16 19 20 20 20 19 18 14 9 6 2 3 3 3 4 8 8 10
1 2 4 4 1 2 3 3 4 3 4 2 2 2 1 0 4 8 10 11 10 9 9 11 16 18 16 22 22 21 19 16 13 8 6 3 2 4 5 3 5 9 10 10
2 1 3 2 3 4 8 4 5 3 2 1 1 3 3 5 5 11 11 10 9 8 8 11 13 15 14 12 16 17 13 10 7 4 3 3 5 5 3 4 8 10 11 13
4 3 2 2 4 3 4 4 2 1 1 3 1 2 5 4 6 15 16 13 11 10 10 10 10 8 9 11 10 12 10 7 5 4 4 5 4 3 5 7 9 12 12 14
3 0 2 3 1 4 2 3 4 4 3 1 1 4 1 2 4 14 14 14 12 11 10 9 10 10 9 8 7 9 8 6 5 4 5 3 3 5 8 12 15 16 17 19
3 1 2 3 1 1 3 2 2 6 1 1 2 3 5 1 5 11 15 12 14 12 10 10 10 8 8 8 6 7 6 5 5 6 3 1 5 8 11 11 11 12 15 17
5 3 1 0 1 5 1 7 3 2 3 3 2 4 5 4 8 12 15 16 14 11 10 9 9 9 9 7 6 5 5 7 7 3 2 4 6 5 5 9 10 12 16 19
3 3 2 1 1 5 2 2 5 4 1 2 1 4 4 8 11 16 17 16 13 11 9 9 11 10 9 7 5 7 9 7 4 1 2 2 3 5 8 8 11 14 18 22
1 4 3 2 0 1 1 3 4 3 4 1 0 5 2 5 8 9 12 8 8 9 10 11 11 10 9 7 10 12 7 4 2 3 5 3 5 6 8 10 13 18 21 21
5 1 3 2 2 1 3 3 4 5 2 5 4 4 1 3 5 10 11 8 9 12 11 9 10 9 7 8 10 6 3 3 4 2 3 6 6 6 7 11 17 20 19 19
5 3 4 6 3 1 4 4 5 4 3 4 6 4 4 6 7 7 9 11 13 12 11 9 8 8 8 8 6 4 5 4 1 4 6 6 5 6 9 14 18 20 20 14
2 4 2 1 1 2 2 4 8 8 4 6 4 9 6 9 11 10 9 12 14 12 10 9 8 10 10 8 7 8 6 3 3 7 8 7 5 8 12 17 19 19 15 10
2 3 2 3 1 3 3 5 7 8 3 10 4 13 9 1 4 10 13 15 14 13 12 10 10 10 8 8 9 9 4 2 6 9 8 6 7 10 16 17 16 14 9 7
2 5 3 3 3 3 5 9 12 6 6 8 10 10 5 5 8 12 14 16 15 14 12 10 11 10 9 11 11 6 2 5 8 8 5 5 8 14 15 14 13 12 9 8
5 4 2 1 2 1 4 2 2 12 10 13 5 4 7 2 2 5 9 15 13 12 11 10 12 11 13 12 7 2 5 6 7 4 5 7 13 13 12 13 15 13 11 10
3 4 3 3 2 6 5 3 6 6 6 12 14 6 4 4 3 4 9 11 13 12 12 13 13 14 12 9 4 4 3 4 3 5 7 12 12 10 11 14 15 13 10 8
5 5 3 3 3 5 5 2 2 3 4 1 7 7 8 8 3 5 13 12 11 11 12 13 14 13 10 5 3 2 2 3 5 7 11 13 12 10 10 12 14 13 9 8
2 3 3 2 3 7 6 2 1 2 5 2 7 7 11 6 4 1 8 9 11 13 14 15 13 8 5 3 3 4 4 4 6 10 13 14 12 10 11 13 11 12 9 6
5 6 3 3 1 6 5 3 4 3 2 2 5 8 12 5 6 7 10 12 16 17 15 12 9 7 4 1 5 5 5 7 10 13 13 12 9 9 11 11 12 10 7 5
3 4 4 8 4 3 5 4 1 2 2 2 3 3 3 6 6 10 11 13 17 16 13 8 6 4 1 2 3 4 6 10 14 14 10 9 9 11 11 10 11 10 8 6
4 4 2 1 2 7 10 7 7 5 7 5 5 6 9 9 11 11 12 12 12 12 8 7 5 2 2 4 3 5 10 12 14 12 9 8 9 13 12 10 9 8 8 8
3 5 4 4 8 4 7 7 10 7 6 5 3 4 8 12 12 14 10 11 14 12 8 5 4 3 3 4 6 9 11 12 11 10 9 10 11 12 12 10 10 10 11 10
5 5 4 5 3 3 5 5 3 3 4 4 5 6 7 13 12 13 9 13 11 7 6 5 3 2 4 6 9 11 12 10 10 10 10 12 12 12 11 11 12 12 13 13
Wind_Direction
8 133 133 159 141 137 145 119 112 46 66 89 81 83 14 12 130 155 155 162 143 112 58 72 99 121 129 136 144 151 148 145 282 181 159 149 154 147 141 132 120 92 63 41
36 94 349 66 100 108 119 113 91 106 26 99 177 80 57 47 62 192 170 166 153 125 116 110 113 124 142 155 165 169 170 171 167 166 160 163 157 157 152 137 114 78 46 25
127 150 106 104 100 104 62 107 135 121 102 77 148 135 69 72 82 103 134 148 144 142 131 122 122 127 133 147 162 166 155 158 168 177 172 157 160 151 142 140 94 48 25 13
74 355 93 88 100 125 92 26 107 106 118 157 336 253 308 53 111 148 152 154 146 136 129 133 134 137 138 141 147 148 154 166 176 178 175 155 170 178 173 136 67 13 352 353
203 117 98 69 357 71 124 92 84 95 96 141 53 253 273 220 218 180 172 168 161 145 142 146 149 149 148 150 151 150 155 160 164 182 194 210 127 109 113 67 359 336 323 319
95 52 71 123 53 63 150 91 59 62 75 211 136 224 232 206 216 181 187 191 173 159 154 158 163 159 159 157 149 145 148 144 150 167 154 121 85 101 63 344 321 317 311 315
13 3 343 60 87 67 76 70 17 6 13 239 71 197 269 235 209 181 186 193 182 182 176 174 168 164 153 146 155 155 151 147 156 147 118 102 82 20 338 326 312 307 306 308
137 22 18 1 93 150 93 163 162 200 203 245 200 235 207 272 207 187 186 186 182 188 189 182 178 171 157 147 153 146 150 153 162 132 114 81 7 312 295 301 311 307 307 305
132 134 352 41 134 165 163 121 123 106 37 263 253 266 253 93 182 180 182 181 193 193 186 181 177 175 161 155 163 171 155 171 159 143 135 326 305 302 304 311 320 324 327 331
184 115 16 84 99 55 143 138 126 40 157 245 279 278 252 218 194 186 188 195 196 186 182 176 165 154 138 146 153 157 165 155 154 161 257 293 315 333 350 343 342 339 334 331
130 105 254 223 226 172 142 120 65 103 94 175 286 257 223 244 194 195 200 197 187 180 174 162 147 133 136 144 146 147 146 161 150 203 332 31 58 360 347 346 341 337 328 321
137 124 148 189 217 309 166 149 143 132 186 82 110 272 217 274 231 213 205 177 167 163 149 142 139 145 155 153 152 142 160 127 38 85 94 35 348 341 340 341 335 326 322 319
184 95 99 15 356 353 217 155 113 105 101 188 161 257 213 276 235 212 192 172 161 149 147 147 150 159 153 140 147 140 106 124 117 91 355 337 323 321 327 330 328 326 327 328
92 120 165 192 188 150 186 183 171 141 148 170 229 259 240 230 216 198 179 171 162 161 161 160 159 156 152 145 152 159 163 153 184 324 313 289 286 308 325 329 330 331 333 334
102 156 136 109 22 263 243 192 186 204 174 191 229 218 235 229 216 199 175 162 165 170 172 173 172 173 170 163 166 165 165 186 287 295 283 266 286 312 324 331 332 331 332 330
22 160 133 195 349 3 279 247 211 227 218 253 236 265 219 219 143 170 182 177 179 179 182 181 178 176 177 169 158 165 180 280 292 285 278 262 297 317 328 330 327 327 324 327
99 137 121 245 360 352 312 223 207 196 207 212 225 244 165 196 207 201 185 185 184 184 183 179 176 180 169 161 170 170 230 289 289 288 263 280 309 321 326 322 316 314 308 311
127 100 60 162 10 262 253 187 192 223 243 215 248 189 192 209 196 182 186 186 186 182 180 176 172 166 163 166 161 207 276 287 294 269 271 304 314 313 318 320 317 309 295 281
50 123 98 150 209 303 277 193 187 181 280 214 218 178 155 122 120 227 198 193 188 184 179 172 172 162 160 160 192 260 281 297 267 278 301 311 302 301 319 324 322 315 293 272
57 59 110 134 185 233 247 307 200 171 283 257 190 154 159 154 173 247 187 182 179 171 157 153 155 152 153 177 224 220 275 268 285 308 307 305 294 295 314 321 321 320 299 272
47 22 166 142 235 285 255 266 189 109 255 173 175 167 163 197 202 62 151 144 143 140 142 145 138 143 150 159 219 253 268 279 300 309 309 308 292 285 306 317 315 315 301 266
173 154 187 110 202 274 187 114 177 227 284 243 207 185 194 189 129 125 134 130 134 130 128 125 130 129 137 287 274 267 267 290 301 305 311 317 295 287 305 309 307 298 284 254
229 199 180 197 220 250 223 242 209 185 262 265 240 265 231 152 164 144 136 133 130 124 115 144 139 139 141 292 274 261 276 294 303 304 299 315 307 294 301 301 301 289 262 250
234 169 216 115 248 239 244 264 257 228 234 234 239 224 189 182 154 138 129 126 123 114 152 154 160 168 243 293 294 286 294 301 307 301 289 298 300 301 297 287 283 271 252 257
201 144 179 260 280 266 259 235 262 263 241 247 231 221 196 152 143 140 131 130 128 143 167 172 171 212 286 292 296 303 303 307 306 295 284 283 297 306 300 272 269 262 257 257
180 185 177 232 269 217 263 311 313 258 265 254 165 97 93 134 121 116 115 120 129 167 169 169 200 262 289 301 305 313 309 298 302 293 284 281 290 299 286 271 275 272 269 268
Height
779 782 788 785 788 791 796 799 803 806 805 813 826 828 828 825 822 825 825 827 830 834 837 838 838 838 839 844 849 850 848 854 855 863 865 866 868 869 869 869 870 870 870 870
783 793 787 788 790 795 798 803 809 809 809 810 825 827 829 827 828 826 826 830 831 834 838 840 839 839 840 842 844 846 851 852 859 865 864 865 867 868 870 870 871 871 870 869
790 790 787 791 796 795 803 805 808 807 810 813 816 820 827 830 830 831 832 833 833 832 835 839 840 841 841 842 847 851 851 856 861 863 864 865 868 870 869 870 870 870 868 867
792 789 791 795 798 796 806 802 804 807 809 814 818 817 822 828 831 832 831 831 832 834 838 840 841 842 841 844 847 850 853 856 859 862 863 864 866 867 867 868 868 868 868 867
798 795 796 800 800 794 806 804 806 812 815 817 820 819 819 829 828 829 830 832 834 837 838 840 841 843 845 845 847 849 851 855 858 860 862 863 864 865 865 867 867 867 867 866
793 789 792 795 798 797 804 806 813 819 820 827 826 823 816 823 819 826 829 832 834 837 839 841 842 842 844 847 847 848 852 855 857 860 861 862 863 865 866 866 867 866 865 864
797 798 794 792 798 800 802 809 828 831 832 831 829 832 810 815 816 815 822 827 832 835 836 838 840 843 845 846 849 849 851 854 856 859 860 861 864 865 865 865 865 865 863 862
807 812 798 795 798 803 812 810 826 837 838 830 830 825 807 813 812 812 817 822 829 832 835 837 841 844 846 848 850 851 853 855 858 859 861 863 864 864 865 865 864 863 861 859
807 809 798 798 797 800 813 818 819 838 857 842 826 819 809 814 814 815 817 823 825 829 834 837 841 844 846 848 850 852 853 856 858 861 861 861 863 864 864 863 861 859 857 854
799 811 804 800 798 803 802 813 822 830 841 838 828 827 809 813 814 815 816 818 822 828 833 837 841 845 845 849 851 852 855 857 858 859 859 861 862 862 861 860 858 857 855 852
796 801 811 805 805 806 810 815 828 828 839 834 840 815 808 804 806 809 808 813 820 826 832 837 841 843 846 850 852 853 855 857 857 857 858 859 860 860 859 858 856 854 852 849
798 808 817 808 805 804 805 810 816 826 834 849 843 817 808 807 805 808 809 816 821 826 831 836 840 843 847 849 851 852 856 855 856 857 858 858 858 857 856 855 854 852 849 845
797 811 820 813 809 805 806 811 820 829 834 836 834 812 809 809 808 806 810 818 823 827 832 836 840 843 846 848 850 851 852 853 856 857 856 856 855 855 855 854 852 849 845 841
795 809 806 809 806 809 810 812 816 814 827 827 821 808 804 805 806 809 812 817 822 827 831 835 839 842 844 845 847 849 851 853 855 855 854 854 854 854 853 851 848 844 840 838
797 803 810 815 817 813 808 809 814 811 812 811 805 810 797 797 798 804 812 818 822 826 830 834 837 840 841 843 846 849 851 852 852 852 852 852 852 851 850 847 844 841 838 836
804 811 813 816 820 820 814 809 810 812 813 810 810 803 794 797 801 806 810 815 819 823 828 832 835 838 841 842 844 847 848 850 850 850 849 849 849 848 846 843 841 838 836 833
807 814 817 819 829 823 819 801 799 802 801 794 802 782 796 799 800 799 805 811 815 820 824 828 832 834 837 839 843 844 846 846 846 846 846 847 846 844 842 839 837 835 833 831
812 820 834 823 838 821 790 793 793 793 788 791 790 790 791 793 797 799 802 806 811 817 821 824 827 830 833 837 840 842 843 842 842 843 844 844 842 840 838 836 834 831 829 828
808 820 838 822 824 809 784 792 794 794 781 779 782 789 795 799 798 797 800 803 806 811 816 820 824 828 832 835 837 839 839 840 840 841 841 840 838 837 835 833 830 828 825 824
816 818 813 843 819 813 790 788 788 788 790 777 779 788 795 796 796 785 793 799 805 810 814 818 823 827 831 833 834 836 837 837 838 838 838 836 834 832 831 829 827 824 822 821
821 831 821 851 818 808 791 790 788 796 788 782 780 785 793 791 785 789 791 799 804 810 815 820 824 828 830 831 833 834 834 835 835 835 833 831 829 828 827 825 824 821 820 818
806 817 825 848 829 807 789 789 791 782 780 780 781 780 783 783 788 792 795 800 806 812 817 821 824 826 829 830 831 831 832 832 832 831 829 826 825 824 823 821 821 819 817 816
805 799 802 805 794 786 786 782 781 782 781 779 781 781 783 787 789 792 797 802 807 812 816 823 825 826 827 829 828 828 829 829 828 825 824 822 821 821 819 818 817 816 815 814
800 801 799 799 781 785 784 781 780 779 778 777 778 778 781 783 790 796 800 804 810 814 821 821 823 824 826 826 826 826 826 825 823 821 820 819 819 817 815 813 813 813 812 811
792 798 796 795 783 781 778 779 775 774 775 775 776 777 778 783 790 795 801 805 808 814 819 821 822 824 824 824 823 823 822 820 820 818 817 816 815 813 811 810 809 809 808 807
790 785 789 785 776 778 775 774 774 774 773 774 776 781 784 786 793 800 805 809 812 816 818 820 820 820 821 821 820 819 818 817 816 814 813 812 810 809 807 806 805 804 803 802